[[{"header":{"parameterUnit":"m.s-1","parameterCategory":1,"la1":30.2992,"la2":30.254,"lo1":-89.0895,"lo2":-89.0443,"dy":0.0025,"dx":0.0025,"nx":19,"ny":19,"refTime":"2026-05-05T03:00:00:Z","depth":0,"parameterNumber":2,"parameterNumberName":"U-component_of_WINDS"},"data":[0,0,0,-0.3922,-0.3922,-0.3935,-0.3935,-0.3942,-0.3942,0,0,0,0,0,0,0,0,0,0,0,-0.3912,-0.3912,-0.3922,-0.3922,-0.3935,-0.3935,-0.3942,-0.3942,0,0,0,0,0,0,0,0,0,0,0,-0.3912,-0.3912,-0.3912,-0.3922,-0.3935,-0.3935,-0.3942,-0.3936,0,0,0,0,0,0,0,0,0,0,-0.3925,-0.3909,-0.3912,-0.3912,-0.3922,-0.3935,-0.3935,-0.3936,-0.3936,-0.3932,0,-0.3926,0,-0.3934,-0.3942,-0.3942,0,0,0,-0.3927,-0.3909,-0.3918,-0.3912,-0.3922,-0.3935,-0.3931,-0.3936,-0.3937,-0.3933,-0.3926,-0.3927,-0.3934,-0.3942,-0.3942,-0.3902,-0.3901,0,0,-0.3926,-0.3911,-0.3918,-0.3918,-0.3915,-0.393,-0.3931,-0.3937,-0.3929,-0.3926,-0.3927,-0.3934,-0.3942,-0.3942,-0.3902,-0.3901,0,0,0,-0.3921,-0.391,-0.3919,-0.3918,-0.3921,-0.393,-0.3931,-0.3929,-0.3933,-0.3927,-0.3935,-0.3942,-0.3942,-0.3902,-0.3902,-0.3866,0,0,0,-0.3921,-0.3907,-0.3919,-0.3909,-0.392,-0.3925,-0.3923,-0.3933,-0.3934,-0.3935,-0.3942,-0.3942,-0.3903,-0.3902,-0.3868,-0.3851,0,0,0,-0.3913,-0.3906,-0.3906,-0.3909,-0.3913,-0.3925,-0.393,-0.3933,-0.3938,-0.3942,-0.3942,-0.3903,-0.3902,-0.387,-0.3854,-0.3836,0,0,0,-0.3901,-0.3873,-0.3905,-0.3878,-0.3913,-0.3903,-0.393,-0.3923,-0.3922,-0.3942,-0.3903,-0.3902,-0.387,-0.3856,-0.3838,-0.3817,-0.3808,0,0,-0.3857,-0.3867,-0.3853,-0.3881,-0.3861,-0.3902,-0.3877,-0.3891,-0.3906,-0.3902,-0.3902,-0.3867,-0.3854,-0.3836,-0.3759,-0.3751,0,0,0,-0.3834,-0.3823,-0.3821,-0.3819,-0.383,-0.3838,-0.3858,-0.3864,-0.3862,-0.3901,-0.3857,-0.3849,-0.384,-0.3831,-0.3824,-0.3817,-0.3897,-0.3897,-0.3897,-0.3749,-0.377,-0.3747,-0.377,-0.3769,-0.3791,-0.3792,-0.3803,-0.3824,-0.3814,-0.3812,-0.3763,-0.3752,-0.3747,-0.3739,-0.3804,-0.3804,-0.3804,-0.3804,-0.3687,-0.3675,-0.3705,-0.3694,-0.3717,-0.3708,-0.3729,-0.3745,-0.374,-0.3766,-0.3758,-0.3783,-0.3738,-0.3732,-0.3801,-0.3802,-0.3802,-0.3802,-0.3803,-0.3633,-0.3631,-0.3639,-0.3641,-0.364,-0.3665,-0.366,-0.3681,-0.3701,-0.3694,-0.3695,-0.3696,-0.3699,-0.3693,-0.3693,-0.3693,-0.3692,-0.3692,-0.3692,-0.3573,-0.3584,-0.3576,-0.3587,-0.359,-0.3596,-0.362,-0.3623,-0.3633,-0.3649,-0.3649,-0.3672,-0.373,-0.3743,-0.369,-0.369,-0.369,-0.3691,-0.3691,-0.3501,-0.3522,-0.351,-0.3513,-0.3528,-0.3526,-0.3555,-0.3561,-0.3567,-0.3564,-0.3589,-0.3629,-0.364,-0.3646,-0.3657,-0.3585,-0.3585,-0.3585,-0.3585,-0.3455,-0.3464,-0.3458,-0.3462,-0.3468,-0.3493,-0.348,-0.3499,-0.3521,-0.3527,-0.3541,-0.3559,-0.3563,-0.3572,-0.3579,-0.359,-0.3502,-0.3502,-0.3502,-0.3413,-0.3423,-0.3407,-0.343,-0.3444,-0.3456,-0.3445,-0.3449,-0.3479,-0.3499,-0.3532,-0.3536,-0.3564,-0.3572,-0.3592,-0.3602,-0.3623,0,0]},{"header":{"parameterUnit":"m.s-1","parameterCategory":1,"la1":30.2992,"la2":30.254,"lo1":-89.0895,"lo2":-89.0443,"dy":0.0025,"dx":0.0025,"nx":19,"ny":19,"refTime":"2026-05-05T03:00:00:Z","depth":0,"parameterNumber":3,"parameterNumberName":"V-component_of_WINDS"},"data":[0,0,0,6.2233,6.2235,6.2313,6.2313,6.242,6.2421,0,0,0,0,0,0,0,0,0,0,0,6.2217,6.2218,6.2233,6.2235,6.2313,6.2313,6.2419,6.2421,0,0,0,0,0,0,0,0,0,0,0,6.2217,6.2218,6.2219,6.2236,6.2313,6.2313,6.2419,6.2357,0,0,0,0,0,0,0,0,0,0,6.228,6.2273,6.2218,6.2219,6.2236,6.2313,6.2313,6.2354,6.2361,6.2388,0,6.2417,0,6.2421,6.2428,6.2429,0,0,0,6.2229,6.2267,6.2282,6.2219,6.2237,6.2313,6.2276,6.2358,6.2366,6.2397,6.2418,6.2422,6.2422,6.2429,6.243,6.2613,6.2614,0,0,6.2225,6.2234,6.2277,6.2288,6.228,6.2274,6.2279,6.2363,6.2384,6.2418,6.2424,6.2424,6.243,6.2431,6.2612,6.2613,0,0,0,6.2217,6.2231,6.2244,6.2284,6.2297,6.2276,6.2282,6.2381,6.2384,6.2425,6.2425,6.2431,6.2432,6.2611,6.2612,6.2678,0,0,0,6.2214,6.2226,6.2243,6.2249,6.2296,6.2341,6.2298,6.2378,6.2388,6.2425,6.2431,6.2433,6.2609,6.2611,6.2674,6.2707,0,0,0,6.2209,6.2226,6.224,6.2249,6.2284,6.2339,6.2347,6.238,6.2388,6.2429,6.2434,6.2608,6.2611,6.267,6.2701,6.2758,0,0,0,6.2207,6.2296,6.2241,6.2341,6.2283,6.2381,6.2347,6.2418,6.2461,6.2431,6.2609,6.2612,6.2669,6.2697,6.2754,6.2808,6.2831,0,0,6.2324,6.2311,6.2369,6.2322,6.2432,6.2368,6.2487,6.2516,6.251,6.2578,6.2582,6.2675,6.27,6.2757,6.2963,6.2981,0,0,0,6.2409,6.2451,6.2478,6.2521,6.2548,6.2572,6.2583,6.2593,6.2651,6.2548,6.2712,6.2726,6.2759,6.2784,6.28,6.2827,6.2625,6.2624,6.2624,6.2587,6.2577,6.2672,6.2672,6.2714,6.2725,6.2757,6.2772,6.2748,6.2787,6.2807,6.2933,6.2963,6.2975,6.3003,6.2835,6.2836,6.2836,6.2836,6.2757,6.2814,6.2783,6.2864,6.2852,6.2918,6.2932,6.2913,6.2971,6.2917,6.2946,6.2887,6.2996,6.302,6.2841,6.284,6.2839,6.2839,6.2839,6.2872,6.2897,6.2912,6.2973,6.3021,6.3017,6.3076,6.3062,6.3049,6.3077,6.3096,6.3095,6.3091,6.3088,6.3088,6.3089,6.3089,6.3089,6.309,6.2984,6.2998,6.3051,6.3088,6.3114,6.3146,6.3159,6.3183,6.3206,6.3191,6.3191,6.3162,6.301,6.2971,6.3096,6.3095,6.3094,6.3094,6.3093,6.3159,6.3118,6.3199,6.3226,6.3268,6.3316,6.3299,6.335,6.3368,6.3397,6.3362,6.3253,6.3236,6.3223,6.3191,6.3365,6.3365,6.3365,6.3365,6.3254,6.3246,6.3326,6.337,6.341,6.3404,6.3493,6.3504,6.3507,6.3517,6.349,6.3447,6.3434,6.3425,6.3408,6.3377,6.3596,6.3596,6.3596,6.336,6.3355,6.3436,6.3442,6.3474,6.3501,6.3585,6.3633,6.3628,6.3605,6.3525,6.3515,6.3444,6.3422,6.3395,6.3369,6.3313,0,0]}]]